• In India
  • List of Countries
  • For 7 days
  • Water Temperature
  • Satellite Maps
  • Weather Map
  • Weather Widgets
  • user-avatar
    Login

    Hourly Weather Wlora

    Today, 11 December, Monday

    Time Temperature Precipitation Wind Pressure Humidity
    00:00 +4°C° 0 mm 7 mps 765 mmHg 79%
    01:00 +4°C° 0 mm 8 mps 765 mmHg 80%
    02:00 +4°C° 0 mm 8 mps 765 mmHg 78%
    03:00 +4°C° 0 mm 8 mps 765 mmHg 77%
    04:00 +4°C° 0 mm 8 mps 765 mmHg 76%
    05:00 +3°C° 0 mm 9 mps 765 mmHg 76%
    06:00 +3°C° 0 mm 9 mps 765 mmHg 76%
    07:00 +3°C° 0 mm 9 mps 765 mmHg 76%
    08:00 +6°C° 0 mm 10 mps 765 mmHg 74%
    09:00 +7°C° 0 mm 10 mps 765 mmHg 72%
    10:00 +9°C° 0 mm 11 mps 765 mmHg 70%
    11:00 +11°C° 0 mm 11 mps 765 mmHg 71%
    12:00 +11°C° 0 mm 11 mps 764 mmHg 72%
    13:00 +12°C° 0 mm 11 mps 764 mmHg 73%
    14:00 +11°C° 0 mm 11 mps 764 mmHg 76%
    15:00 +11°C° 0 mm 11 mps 764 mmHg 79%
    16:00 +9°C° 0 mm 11 mps 764 mmHg 82%
    17:00 +9°C° 0.1 mm 11 mps 764 mmHg 82%
    18:00 +8°C° 0.1 mm 11 mps 764 mmHg 83%
    19:00 +8°C° 0.1 mm 11 mps 764 mmHg 83%
    20:00 +8°C° 0.1 mm 11 mps 765 mmHg 83%
    21:00 +8°C° 0.1 mm 11 mps 765 mmHg 82%
    22:00 +9°C° 0.1 mm 11 mps 765 mmHg 82%
    23:00 +9°C° 0.1 mm 11 mps 765 mmHg 82%

    Tomorrow, 12 December, Tuesday

    Time Temperature Precipitation Wind Pressure Humidity
    00:00 +9°C° 0.1 mm 10 mps 765 mmHg 83%
    01:00 +9°C° 0.1 mm 10 mps 765 mmHg 83%
    02:00 +9°C° 0.1 mm 10 mps 765 mmHg 84%
    03:00 +11°C° 0.1 mm 9 mps 765 mmHg 84%
    04:00 +11°C° 0.1 mm 9 mps 764 mmHg 85%
    05:00 +11°C° 0.1 mm 9 mps 765 mmHg 86%
    06:00 +11°C° 0.1 mm 9 mps 765 mmHg 88%
    07:00 +10°C° 0.1 mm 8 mps 765 mmHg 89%
    08:00 +11°C° 0.1 mm 8 mps 765 mmHg 88%
    09:00 +12°C° 0.1 mm 9 mps 766 mmHg 88%
    10:00 +12°C° 0.1 mm 9 mps 766 mmHg 87%
    11:00 +13°C° 0.1 mm 9 mps 766 mmHg 84%
    12:00 +15°C° 0.1 mm 9 mps 765 mmHg 81%
    13:00 +16°C° 0.1 mm 9 mps 765 mmHg 77%
    14:00 +16°C° 0.1 mm 9 mps 765 mmHg 81%
    15:00 +15°C° 0.1 mm 9 mps 765 mmHg 84%
    16:00 +13°C° 0.1 mm 8 mps 765 mmHg 87%
    17:00 +12°C° 0 mm 8 mps 766 mmHg 88%
    18:00 +12°C° 0 mm 8 mps 766 mmHg 88%
    19:00 +11°C° 0 mm 8 mps 766 mmHg 89%
    20:00 +11°C° 0 mm 8 mps 767 mmHg 89%
    21:00 +11°C° 0 mm 8 mps 767 mmHg 88%
    22:00 +11°C° 0 mm 8 mps 767 mmHg 88%
    23:00 +10°C° 0 mm 8 mps 767 mmHg 88%

    Day after tomorrow, 13 December, Wednesday

    Time Temperature Precipitation Wind Pressure Humidity
    00:00 +10°C° 0 mm 8 mps 767 mmHg 88%
    01:00 +10°C° 0 mm 8 mps 767 mmHg 88%
    02:00 +10°C° 0 mm 8 mps 767 mmHg 88%
    03:00 +10°C° 0 mm 7 mps 767 mmHg 89%
    04:00 +10°C° 0 mm 7 mps 766 mmHg 89%
    05:00 +10°C° 0 mm 7 mps 767 mmHg 90%
    06:00 +10°C° 0 mm 7 mps 767 mmHg 90%
    07:00 +10°C° 0 mm 7 mps 767 mmHg 90%
    08:00 +11°C° 0 mm 8 mps 767 mmHg 87%
    09:00 +13°C° 0 mm 8 mps 767 mmHg 84%
    10:00 +15°C° 0 mm 8 mps 767 mmHg 81%
    11:00 +16°C° 0 mm 8 mps 766 mmHg 78%
    12:00 +16°C° 0 mm 8 mps 766 mmHg 75%
    13:00 +17°C° 0 mm 8 mps 765 mmHg 72%
    14:00 +16°C° 0 mm 7 mps 765 mmHg 76%
    15:00 +15°C° 0 mm 7 mps 765 mmHg 81%
    16:00 +14°C° 0 mm 7 mps 765 mmHg 85%
    17:00 +14°C° 0 mm 6 mps 765 mmHg 87%
    18:00 +13°C° 0 mm 6 mps 765 mmHg 88%
    19:00 +13°C° 0 mm 6 mps 765 mmHg 90%
    20:00 +13°C° 0.3 mm 6 mps 765 mmHg 90%
    21:00 +13°C° 0.3 mm 5 mps 765 mmHg 90%
    22:00 +13°C° 0.3 mm 5 mps 765 mmHg 91%
    23:00 +13°C° 0.6 mm 4 mps 764 mmHg 92%

    14 December, Thursday

    Time Temperature Precipitation Wind Pressure Humidity
    00:00 +13°C° 0.6 mm 4 mps 764 mmHg 94%
    01:00 +13°C° 0.6 mm 4 mps 764 mmHg 95%
    02:00 +12°C° 0.2 mm 4 mps 764 mmHg 94%
    03:00 +12°C° 0.2 mm 4 mps 764 mmHg 93%
    04:00 +12°C° 0.2 mm 4 mps 764 mmHg 92%
    05:00 +11°C° 0 mm 4 mps 765 mmHg 91%
    06:00 +11°C° 0 mm 4 mps 765 mmHg 90%
    07:00 +10°C° 0 mm 5 mps 765 mmHg 89%
    08:00 +11°C° 0 mm 4 mps 765 mmHg 82%
    09:00 +12°C° 0 mm 3 mps 765 mmHg 76%
    10:00 +13°C° 0 mm 3 mps 765 mmHg 69%
    11:00 +13°C° 0 mm 3 mps 765 mmHg 65%
    12:00 +15°C° 0 mm 2 mps 765 mmHg 62%
    13:00 +15°C° 0 mm 2 mps 764 mmHg 58%
    14:00 +14°C° 0 mm 2 mps 764 mmHg 63%
    15:00 +13°C° 0 mm 2 mps 764 mmHg 67%
    16:00 +13°C° 0 mm 1 mps 764 mmHg 71%
    17:00 +12°C° 0 mm 2 mps 765 mmHg 73%
    18:00 +12°C° 0 mm 2 mps 765 mmHg 75%
    19:00 +10°C° 0 mm 3 mps 765 mmHg 77%
    20:00 +10°C° 0 mm 3 mps 765 mmHg 78%
    21:00 +10°C° 0 mm 4 mps 765 mmHg 79%
    22:00 +8°C° 0 mm 4 mps 765 mmHg 80%
    23:00 +8°C° 0 mm 5 mps 765 mmHg 79%

    15 December, Friday

    Time Temperature Precipitation Wind Pressure Humidity
    00:00 +8°C° 0 mm 5 mps 764 mmHg 78%
    01:00 +8°C° 0 mm 6 mps 764 mmHg 77%
    02:00 +8°C° 0 mm 6 mps 764 mmHg 76%
    03:00 +8°C° 0 mm 6 mps 763 mmHg 75%
    04:00 +7°C° 0 mm 6 mps 763 mmHg 74%
    05:00 +7°C° 0 mm 6 mps 763 mmHg 76%
    06:00 +6°C° 0 mm 7 mps 763 mmHg 78%
    07:00 +6°C° 0 mm 7 mps 763 mmHg 80%
    08:00 +9°C° 0 mm 7 mps 763 mmHg 79%
    09:00 +11°C° 0 mm 8 mps 763 mmHg 79%
    10:00 +12°C° 0 mm 9 mps 763 mmHg 78%
    11:00 +13°C° 0 mm 9 mps 762 mmHg 77%
    12:00 +13°C° 0 mm 9 mps 761 mmHg 76%
    13:00 +14°C° 0 mm 10 mps 761 mmHg 75%
    14:00 +13°C° 0 mm 10 mps 761 mmHg 78%
    15:00 +13°C° 0 mm 10 mps 760 mmHg 80%
    16:00 +12°C° 0 mm 10 mps 760 mmHg 82%
    17:00 +12°C° 0 mm 10 mps 760 mmHg 84%
    18:00 +11°C° 0 mm 10 mps 760 mmHg 85%
    19:00 +11°C° 0 mm 10 mps 760 mmHg 87%
    20:00 +11°C° 0.1 mm 10 mps 760 mmHg 86%
    21:00 +11°C° 0.1 mm 10 mps 760 mmHg 86%
    22:00 +11°C° 0.1 mm 10 mps 760 mmHg 86%
    23:00 +11°C° 0.1 mm 10 mps 760 mmHg 87%

    16 December, Saturday

    Time Temperature Precipitation Wind Pressure Humidity
    00:00 +11°C° 0.1 mm 10 mps 760 mmHg 87%
    01:00 +11°C° 0.1 mm 11 mps 759 mmHg 87%
    02:00 +11°C° 0.1 mm 11 mps 759 mmHg 88%
    03:00 +11°C° 0.1 mm 11 mps 758 mmHg 88%
    04:00 +12°C° 0.1 mm 12 mps 758 mmHg 88%
    05:00 +12°C° 0.1 mm 12 mps 758 mmHg 88%
    06:00 +12°C° 0.1 mm 13 mps 758 mmHg 87%
    07:00 +12°C° 0.1 mm 13 mps 757 mmHg 86%
    08:00 +13°C° 0.1 mm 13 mps 757 mmHg 85%
    09:00 +13°C° 0.1 mm 13 mps 757 mmHg 84%
    10:00 +14°C° 0.1 mm 13 mps 757 mmHg 83%
    11:00 +14°C° 1 mm 12 mps 756 mmHg 84%
    12:00 +14°C° 1 mm 12 mps 756 mmHg 85%
    13:00 +13°C° 1 mm 11 mps 755 mmHg 86%
    14:00 +13°C° 1.3 mm 11 mps 755 mmHg 87%
    15:00 +13°C° 1.3 mm 11 mps 754 mmHg 88%
    16:00 +13°C° 1.3 mm 11 mps 753 mmHg 88%
    17:00 +12°C° 3.3 mm 12 mps 753 mmHg 87%
    18:00 +12°C° 3.3 mm 12 mps 752 mmHg 85%
    19:00 +12°C° 3.3 mm 13 mps 752 mmHg 83%
    20:00 +12°C° 5.9 mm 12 mps 751 mmHg 85%
    21:00 +12°C° 5.9 mm 12 mps 750 mmHg 87%
    22:00 +12°C° 5.9 mm 12 mps 750 mmHg 88%
    23:00 +12°C° 6 mm 11 mps 749 mmHg 88%
    Show more